This is the latest recevied weather packets stored in our database for station/object KD8OZS. If no packets are shown the sender has not sent any weather packets the latest 10 day(s).
| Time | Temp. | Humidity | Pressure | Rain* | Wind** | Luminosity | Snow |
|---|---|---|---|---|---|---|---|
| 1777633610 | 5° C | 94% | 1005 hPa | 0 mm | - | 5 W/m² | - |
| 1777633308 | 5° C | 94% | 1005.2 hPa | 0 mm | - | 4 W/m² | - |
| 1777633005 | 5° C | 94% | 1005.2 hPa | 0 mm | - | 11 W/m² | - |
| 1777632701 | 4.44° C | 94% | 1004.9 hPa | 0 mm | - | 8 W/m² | - |
| 1777632397 | 4.44° C | 94% | 1005.1 hPa | 0 mm | - | 3 W/m² | - |
| 1777632095 | 4.44° C | 94% | 1005 hPa | 0 mm | - | 3 W/m² | - |
| 1777631792 | 4.44° C | 94% | 1005.1 hPa | 0 mm | - | 1 W/m² | - |
| 1777631491 | 4.44° C | 94% | 1004.8 hPa | 0 mm | - | 0 W/m² | - |
| 1777631187 | 4.44° C | 94% | 1005 hPa | 0 mm | - | 0 W/m² | - |
| 1777630884 | 4.44° C | 94% | 1005 hPa | 0 mm | - | 0 W/m² | - |
| 1777630580 | 4.44° C | 94% | 1004.8 hPa | 0 mm | - | 0 W/m² | - |
| 1777630277 | 4.44° C | 94% | 1005 hPa | 0 mm | - | 0 W/m² | - |
| 1777629975 | 3.89° C | 94% | 1004.8 hPa | 0 mm | - | 0 W/m² | - |
| 1777629672 | 3.89° C | 94% | 1004.8 hPa | 0 mm | - | 0 W/m² | - |
| 1777629369 | 3.89° C | 94% | 1005 hPa | 0 mm | - | 0 W/m² | - |
| 1777629064 | 3.89° C | 94% | 1004.8 hPa | 0 mm | - | 0 W/m² | - |
| 1777628761 | 3.89° C | 94% | 1004.9 hPa | 0 mm | - | 0 W/m² | - |
| 1777628457 | 3.89° C | 94% | 1004.9 hPa | 0 mm | - | 0 W/m² | - |
| 1777628154 | 3.89° C | 94% | 1005.1 hPa | 0 mm | - | 0 W/m² | - |
| 1777627850 | 3.89° C | 94% | 1005 hPa | 0 mm | - | 0 W/m² | - |
| 1777627548 | 3.89° C | 94% | 1005.1 hPa | 0 mm | - | 0 W/m² | - |
| 1777627243 | 4.44° C | 94% | 1005 hPa | 0 mm | - | 0 W/m² | - |
| 1777626940 | 4.44° C | 94% | 1005.1 hPa | 0 mm | - | 0 W/m² | - |
| 1777626637 | 4.44° C | 94% | 1005.1 hPa | 0 mm | - | 0 W/m² | - |
| 1777626332 | 5° C | 95% | 1005 hPa | 0 mm | - | 0 W/m² | - |
* Rain latest hour (hover to see other rain measurements)
** Current wind speed in m/s (hover to see current wind gust speed)